sat.trackr.live / text

‹ back to catalog

STARLINK-36273

NORAD 68166 · 2026-049AA

PAYLOAD ACTIVE UNKNOWN

§ Identity

Operator
Country
US
Launch date
2026-03-13
Launch site
AFWTR
Launch vehicle
Mass (kg)
RCS (m²)

Purposes: comms

External: N2YO · Heavens-Above · Gunter

§ Orbital elements

Epoch: 2026-05-25T04:00:03.998880Z

Period
93.91 min
Inclination
97.2851°
Eccentricity
0.0001721
Mean motion
15.33457002 rev/d
Perigee alt
464.3 km
Apogee alt
466.7 km
Semi-major
6,843.6 km
B*
-1.4862e-3
RAAN
167.6582°
Arg perigee
81.6838°
Mean anomaly
230.9456°
Rev number
588

§ Raw data

STARLINK-362731 68166U 26049AA  26145.16671295 -.00047775  00000+0 -14862-2 0  99972 68166  97.2851 167.6582 0001721  81.6838 230.9456 15.33457002  5881

JSON: /api/v1/satellites/68166 · /tle

For live sub-satellite position, see the globe view (requires WebGL).

§ Visibility from observer

Set your observer location to see the next 7 days of passes ≥ 10°. The values pass through the URL so the page stays shareable.

No JS? Fill the form by hand. The geolocation button needs JavaScript.